Weather History for Rapid City, SD

Change the Weather History Date:

Wednesday, March 6, 2013

  Actual Average Record
Temperature  
Mean Temperature 29 °F 32 °F  
Max Temperature 49 °F 45 °F 75 °F (1968)
Min Temperature 9 °F 20 °F -14 °F (1943)
Degree Days  
Heating Degree Days 36 33  
Month to date heating degree days 190 201  
Since 1 July heating degree days 5179 5411  
Cooling Degree Days 0 0  
Month to date cooling degree days 0 0  
Year to date cooling degree days 0 0  
Moisture  
Dew Point 15 °F    
Average Humidity 61    
Maximum Humidity 92    
Minimum Humidity 29    
Precipitation  
Precipitation 0.00 in 0.03 in 0.82 in (1990)
Month to date precipitation T 0.15  
Year to date precipitation 0.61 0.89  
Snow  
Snow 0.00 in 0.30 in - ()
Month to date snowfall T 1.7  
Since 1 July snowfall 20.4 25.1  
Snow Depth 0.00 in    
Sea Level Pressure  
Sea Level Pressure 30.07 in    
Wind  
Wind Speed 9 mph (SE)    
Max Wind Speed 17 mph    
Max Gust Speed 22 mph    
Visibility 10 miles    
Events      
T = Trace of Precipitation, MM = Missing Value Source: NWS Daily Summary

Daily Weather History Graph

Daily Weather History Graph

Search for Another Location

Airport:

Trip Planner

Search our weather history database for the weather conditions in past years. The results will help you decide how hot, cold, wet, or windy it might be!

Date:

Astronomy

Mar. 06, 2013 Rise Set
Actual Time 6:20 AM MST 5:47 PM MST
Civil Twilight 5:51 AM MST 6:16 PM MST
Nautical Twilight 5:17 AM MST 6:49 PM MST
Astronomical Twilight 4:44 AM MST 7:23 PM MST
Moon 2:40 AM MST (3/6) 12:23 PM MST (3/6)
Length of Visible Light 12h 25m
Length of Day
11h 27m
Waning Crescent, 29% of the Moon is Illuminated
Mar 6
Waning Crescent
Mar 11
New
Mar 19
First Quarter
Mar 27
Full
Apr 2
Last Quarter

Hourly Weather History & Observations

Time (MST) Temp. Windchill Dew Point Humidity Pressure Visibility Wind Dir Wind Speed Gust Speed Precip Events Conditions
12:52 AM 10.9 °F 0.2 °F 7.0 °F 84% 30.31 in 10.0 mi SSE 6.9 mph - N/A   Clear
1:52 AM 9.0 °F -0.9 °F 6.1 °F 88% 30.29 in 10.0 mi SE 5.8 mph - N/A   Clear
2:52 AM 10.9 °F -3.4 °F 7.0 °F 84% 30.25 in 10.0 mi SSE 11.5 mph - N/A   Clear
3:52 AM 10.9 °F -1.8 °F 8.1 °F 88% 30.23 in 10.0 mi SE 9.2 mph - N/A   Clear
4:52 AM 10.9 °F -1.8 °F 8.1 °F 88% 30.22 in 10.0 mi SE 9.2 mph - N/A   Clear
5:52 AM 12.9 °F 0.7 °F 9.0 °F 84% 30.23 in 10.0 mi ESE 9.2 mph - N/A   Clear
6:52 AM 14.0 °F 3.9 °F 10.0 °F 84% 30.22 in 10.0 mi ESE 6.9 mph - N/A   Clear
7:52 AM 17.1 °F 10.0 °F 12.9 °F 84% 30.22 in 10.0 mi ESE 4.6 mph - N/A   Clear
8:52 AM 21.9 °F 14.5 °F 16.0 °F 78% 30.20 in 10.0 mi ESE 5.8 mph - N/A   Clear
9:52 AM 27.0 °F 18.0 °F 16.0 °F 63% 30.17 in 10.0 mi SE 9.2 mph - N/A   Clear
10:52 AM 34.0 °F 28.8 °F 17.1 °F 50% 30.12 in 10.0 mi SSE 5.8 mph - N/A   Clear
11:52 AM 37.9 °F 30.9 °F 18.0 °F 45% 30.09 in 10.0 mi SE 10.4 mph - N/A   Clear
12:52 PM 43.0 °F 36.4 °F 18.0 °F 37% 30.04 in 10.0 mi SE 12.7 mph 18.4 mph N/A   Clear
1:52 PM 45.0 °F 39.7 °F 18.0 °F 34% 30.00 in 10.0 mi ESE 10.4 mph 19.6 mph N/A   Clear
2:52 PM 48.0 °F - 17.1 °F 29% 29.95 in 10.0 mi SSE 13.8 mph - N/A   Clear
3:52 PM 46.9 °F - 18.0 °F 32% 29.94 in 10.0 mi SSE 13.8 mph - N/A   Clear
4:52 PM 45.0 °F 41.2 °F 18.0 °F 34% 29.91 in 10.0 mi SE 6.9 mph - N/A   Clear
5:52 PM 39.9 °F 35.8 °F 17.1 °F 40% 29.91 in 10.0 mi ESE 5.8 mph - N/A   Clear
6:52 PM 37.0 °F 31.0 °F 19.0 °F 48% 29.92 in 10.0 mi SSE 8.1 mph - N/A   Clear
7:52 PM 34.0 °F 29.8 °F 18.0 °F 52% 29.91 in 10.0 mi SE 4.6 mph - N/A   Clear
8:52 PM 30.9 °F 22.8 °F 19.9 °F 64% 29.91 in 10.0 mi ESE 9.2 mph - N/A   Clear
9:52 PM 33.1 °F 23.4 °F 21.9 °F 64% 29.89 in 10.0 mi SE 13.8 mph - N/A   Clear
10:52 PM 30.9 °F 20.7 °F 21.9 °F 69% 29.88 in 10.0 mi SE 13.8 mph - N/A   Clear
11:52 PM 27.0 °F 18.7 °F 21.0 °F 78% 29.86 in 10.0 mi SE 8.1 mph - N/A   Clear